Regional Weather Roundup
Issued by NWS

Home | Current Version | Previous Version | Text Only | Print | Product List | Glossary Off
Versions: 1 2 3 4 5 6 7 8 9 10 11 12 13 14 15 16 17 18 19 20 21 22 23 24 25 26 27 28

000
ASUS45 KCYS 281110
RWRWY

WYOMING REGIONAL WEATHER ROUNDUP
NATIONAL WEATHER SERVICE CHEYENNE WY
500 AM MDT SAT MAY 28 2016

NOTE:  "FAIR" INDICATES FEW OR NO CLOUDS BELOW 12,000 FEET
WITH NO SIGNIFICANT WEATHER AND/OR OBSTRUCTIONS TO VISIBILITY.

WYZ001-281200-
YELLOWSTONE NATIONAL PARK

CITY           SKY/WX    TMP DP  RH WIND       PRES   REMARKS
LK YELLOWSTONE   N/A     31  29  92 CALM      30.06S
W YELLOWSTONE  NOT AVBL

$$
WYZ002>013-054>058-071-098>099-281200-
NORTHERN WYOMING

CITY           SKY/WX    TMP DP  RH WIND       PRES   REMARKS
JACKSON        FAIR      34  30  86 W8        30.02S WCI  27
CODY           CLOUDY    43  43 100 CALM      29.96S
GREYBULL       MOCLDY    50  46  86 W7        29.93S
WORLAND        MOCLDY    49  47  93 N6        29.93S
SHERIDAN       FAIR      47  44  90 W13       29.92R
BUFFALO        FAIR      45  41  86 W9        29.92S
GILLETTE       CLOUDY    46  45  96 SW3       29.90F
HULETT         CLOUDY    46  43  87 CALM      29.91F
NEWCASTLE      FAIR      41  39  93 CALM      29.91S

$$
WYZ014>020-022>026-101>103-281200-
CENTRAL WYOMING

CITY           SKY/WX    TMP DP  RH WIND       PRES   REMARKS
BIG PINEY      FAIR      37  32  82 N6        30.05R WCI  32
PINEDALE       FAIR      32  32 100 NW6       30.05S WCI  26
DUBOIS         FAIR      39  28  65 W9        30.02R WCI  33
LANDER         FAIR      42  32  67 SE5       29.95R
RIVERTON       FAIR      43  39  86 NW9       29.95S
CASPER         FAIR      38  35  89 S6        29.95S WCI  33
DOUGLAS          N/A    N/A N/A N/A MISG      29.96R

$$
WYZ021-027>030-104>119-281200-
SOUTHERN WYOMING

CITY           SKY/WX    TMP DP  RH WIND       PRES   REMARKS
EVANSTON       MOCLDY    40  33  76 SW7       30.06S
KEMMERER         N/A     37  34  87 CALM      30.06S
FORT BRIDGER   SUNNY     43  36  75 W9        30.08S
ROCK SPRINGS   FAIR      42  34  73 SW12      30.04R
DIXON          FAIR      35  33  92 NE5       30.09S WCI  31
RAWLINS        FAIR      43  35  73 SW14      30.03R
SARATOGA       FAIR      37  36  93 SE7       30.06R WCI  32
LARAMIE        FAIR      34  32  92 SW8       30.01S WCI  27
CHEYENNE       MOCLDY    42  35  76 W6        29.97S
TORRINGTON     FOG       40  40 100 NW6       29.91R VSB 1/4
PINE BLUFFS    FAIR      36  36 100 W5        29.96S WCI  32

$$




USA.gov is the U.S. government's official web portal to all federal, state and local government web resources and services.